McGregor, TX

11:06 AM CDT on October 17, 2019 (GMT -0500)
McGregor Executive

Weather History for KPWG - September, 2019

Change the Weather History Date:

Sunday, September 15, 2019

  Actual Average Record
Temperature  
Mean Temperature 84 °F -  
Max Temperature 98 °F 86 °F 98 °F (1997)
Min Temperature 71 °F 66 °F 60 °F (1999)
Cooling Degree Days 19    
Growing Degree Days 34 (Base 50)    
Moisture  
Dew Point 63 °F    
Average Humidity 51    
Maximum Humidity 73    
Minimum Humidity 30    
Precipitation  
Precipitation 0.00 in - - ()
Sea Level Pressure  
Sea Level Pressure 30.03 in    
Wind  
Wind Speed 3 mph ()    
Max Wind Speed 14 mph    
Max Gust Speed 16 mph    
Visibility 9.8 miles    
Events      
Averages and records for this station are not official NWS values.
T = Trace of Precipitation, MM = Missing Value Source: Averaged Metar Reports

Daily Weather History Graph

Daily Weather History Graph

Search for Another Location

Airport or City:

Astronomy

Sep. 15, 2019 Rise Set
Actual Time 7:13 AM CDT 7:35 PM CDT
Civil Twilight 6:48 AM CDT 7:59 PM CDT
Nautical Twilight 6:20 AM CDT 8:28 PM CDT
Astronomical Twilight 5:51 AM CDT 8:56 PM CDT
Moon 8:47 PM CDT (9/15) 8:23 AM CDT (9/15)
Length of Visible Light 13h 10m
Length of Day
12h 22m
Full, 98% of the Moon is Illuminated
Sep 15
Full
Sep 21
Last Quarter
Sep 28
New
Oct 5
First Quarter
Oct 13
Full

Hourly Weather History & Observations

Time (CDT) Temp. Heat Index Dew Point Humidity Pressure Visibility Wind Dir Wind Speed Gust Speed Precip Events Conditions
12:56 AM 77.0 °F - 61.0 °F 58% 30.06 in 10.0 mi SSW 3.5 mph - N/A   Clear
1:56 AM 77.0 °F - 62.1 °F 60% 30.06 in 10.0 mi South 4.6 mph - N/A   Clear
2:56 AM 73.9 °F - 62.1 °F 66% 30.06 in 10.0 mi Calm Calm - N/A   Clear
3:56 AM 73.0 °F - 62.1 °F 68% 30.06 in 10.0 mi Calm Calm - N/A   Clear
4:56 AM 72.0 °F - 62.1 °F 71% 30.05 in 10.0 mi Calm Calm - N/A   Clear
5:56 AM 71.1 °F - 61.0 °F 70% 30.06 in 10.0 mi Calm Calm - N/A   Clear
6:56 AM 71.1 °F - 62.1 °F 73% 30.07 in 10.0 mi Calm Calm - N/A   Clear
7:56 AM 72.0 °F - 62.1 °F 71% 30.08 in 10.0 mi Calm Calm - N/A   Clear
8:56 AM 78.1 °F - 64.0 °F 62% 30.08 in 10.0 mi Calm Calm - N/A   Clear
9:56 AM 84.9 °F 87.1 °F 66.0 °F 53% 30.09 in 10.0 mi Calm Calm - N/A   Clear
10:56 AM 90.0 °F 91.3 °F 64.0 °F 42% 30.08 in 9.0 mi East 5.8 mph - N/A   Clear
11:56 AM 91.0 °F 93.0 °F 64.9 °F 42% 30.07 in 10.0 mi NE 4.6 mph - N/A   Clear
12:56 PM 93.0 °F 94.6 °F 64.0 °F 38% 30.06 in 7.0 mi Variable 3.5 mph 16.1 mph N/A   Clear
1:56 PM 95.0 °F 96.0 °F 63.0 °F 34% 30.03 in 10.0 mi East 11.5 mph - N/A   Clear
2:56 PM 96.1 °F 97.3 °F 63.0 °F 33% 30.00 in 10.0 mi East 8.1 mph - N/A   Scattered Clouds
3:56 PM 97.0 °F 97.8 °F 62.1 °F 31% 29.98 in 10.0 mi ENE 6.9 mph 16.1 mph N/A   Partly Cloudy
4:56 PM 96.1 °F 96.4 °F 61.0 °F 31% 29.96 in 10.0 mi Variable 5.8 mph - N/A   Partly Cloudy
5:56 PM 97.0 °F 97.4 °F 61.0 °F 30% 29.96 in 10.0 mi ENE 11.5 mph - N/A   Scattered Clouds
6:56 PM 93.9 °F 94.8 °F 62.1 °F 35% 29.96 in 10.0 mi ESE 13.8 mph - N/A   Scattered Clouds
7:56 PM 89.1 °F 89.3 °F 62.1 °F 40% 29.97 in 10.0 mi ESE 6.9 mph - N/A   Clear
8:56 PM 84.9 °F 85.4 °F 62.1 °F 46% 29.98 in 10.0 mi ESE 4.6 mph - N/A   Clear
9:56 PM 82.9 °F 84.0 °F 63.0 °F 51% 30.00 in 10.0 mi East 3.5 mph - N/A   Clear
10:56 PM 82.0 °F 83.4 °F 64.0 °F 54% 30.01 in 10.0 mi ESE 5.8 mph - N/A   Clear
11:56 PM 82.0 °F 83.4 °F 64.0 °F 54% 30.01 in 10.0 mi Calm Calm - N/A   Clear